This is the latest recevied weather packets stored in our database for station/object N4DBJ. If no packets are shown the sender has not sent any weather packets the latest 10 day(s).
| Time | Temp. | Humidity | Pressure | Rain* | Wind** | Luminosity | Snow |
|---|---|---|---|---|---|---|---|
| 1777776369 | 4.44° C | 99% | 1016.8 hPa | 0 mm | - | 0 W/m² | - |
| 1777776066 | 4.44° C | 99% | 1016.8 hPa | 0 mm | - | 0 W/m² | - |
| 1777775763 | 5° C | 99% | 1016.8 hPa | 0 mm | - | 0 W/m² | - |
| 1777775460 | 5° C | 99% | 1016.7 hPa | 0 mm | - | 0 W/m² | - |
| 1777775156 | 5° C | 98% | 1016.4 hPa | 0 mm | - | 0 W/m² | - |
| 1777774851 | 5° C | 98% | 1016.7 hPa | 0 mm | - | 0 W/m² | - |
| 1777774548 | 5° C | 98% | 1016.5 hPa | 0 mm | - | 0 W/m² | - |
| 1777774245 | 5° C | 98% | 1016.5 hPa | 0 mm | - | 0 W/m² | - |
| 1777773942 | 5.56° C | 97% | 1016.6 hPa | 0 mm | - | 0 W/m² | - |
| 1777773639 | 5.56° C | 97% | 1016.4 hPa | 0 mm | - | 0 W/m² | - |
| 1777773335 | 6.11° C | 97% | 1016.5 hPa | 0 mm | - | 0 W/m² | - |
| 1777773033 | 6.11° C | 97% | 1016.4 hPa | 0 mm | - | 0 W/m² | - |
| 1777772729 | 6.11° C | 96% | 1016.5 hPa | 0 mm | - | 0 W/m² | - |
| 1777772427 | 6.67° C | 96% | 1016.4 hPa | 0 mm | - | 0 W/m² | - |
| 1777772124 | 6.11° C | 96% | 1016.3 hPa | 0 mm | - | 0 W/m² | - |
| 1777771822 | 6.67° C | 95% | 1016.4 hPa | 0 mm | - | 0 W/m² | - |
| 1777771519 | 6.67° C | 94% | 1016.4 hPa | 0 mm | - | 0 W/m² | - |
| 1777771215 | 6.67° C | 93% | 1016.2 hPa | 0 mm | - | 0 W/m² | - |
| 1777770912 | 7.22° C | 93% | 1016 hPa | 0 mm | - | 0 W/m² | - |
| 1777770609 | 7.22° C | 92% | 1016.1 hPa | 0 mm | - | 0 W/m² | - |
| 1777770305 | 7.22° C | 91% | 1016 hPa | 0 mm | - | 0 W/m² | - |
| 1777770003 | 7.78° C | 90% | 1016.1 hPa | 0 mm | - | 0 W/m² | - |
| 1777769700 | 7.78° C | 89% | 1016 hPa | 0 mm | - | 0 W/m² | - |
| 1777769397 | 8.33° C | 88% | 1016.2 hPa | 0 mm | - | 0 W/m² | - |
| 1777769093 | 8.33° C | 88% | 1016.1 hPa | 0 mm | - | 0 W/m² | - |
* Rain latest hour (hover to see other rain measurements)
** Current wind speed in m/s (hover to see current wind gust speed)